STARLINK AG

Last updated on Sat Jul 15 2023 00:02:05 GMT+0000 (Coordinated Universal Time)

1 57248U 23094AG 23195.75001157 -.01069685 34106-3 -30491-2 0 9993 2 57248 42.9944 276.0470 0025220 199.8354 242.3815 15.91786904 1305

Satellite not in orbit

STARLINK AG